Simultaneous Nadir Overpasses (SNOs) Predictions

Prediction of SNOs between AQUA and LANDSAT-8 Satellite Orbit:

Table of predicted SNOs for the next 14.0 days since TLE Epoch: 11/10/2023
Index Date (AQUA) Time (AQUA) Lat,Lon (AQUA) SZA (AQUA ) Date (LANDSAT-8) Time (LANDSAT-8) Lat,Lon (LANDSAT-8) SZA (LANDSAT-8 ) Distance(km) Time Diff (sec)
1 11/23/2023 14:23:28 72.12, -33.29 92.48 11/23/2023 14:22:23 72.12, -36.04 92.41 93.86 65
2 11/23/2023 15:12:55 -72.34, 133.96 87.31 11/23/2023 15:11:47 -72.33, 131.97 87.37 67.34 68
3 11/23/2023 16:02:19 72.34, -58.38 92.70 11/23/2023 16:01:12 72.33, -60.39 92.64 67.87 67
4 11/23/2023 16:51:46 -72.55, 108.87 87.09 11/23/2023 16:50:36 -72.54, 107.63 87.14 41.50 70
5 11/23/2023 17:41:10 72.55, -83.47 92.91 11/23/2023 17:40:01 72.54, -84.73 92.87 41.89 69
6 11/23/2023 18:30:37 -72.76, 83.77 86.88 11/23/2023 18:29:25 -72.75, 83.30 86.92 15.75 72
7 11/23/2023 19:20:01 72.76,-108.57 93.13 11/23/2023 19:18:49 72.80,-108.95 93.15 13.15 72
8 11/23/2023 20:09:26 -72.87, 58.87 86.76 11/23/2023 20:08:15 -72.90, 58.87 86.74 3.08 71
9 11/23/2023 20:58:50 72.87,-133.48 93.25 11/23/2023 20:57:40 72.90,-133.48 93.27 3.44 70
10 11/23/2023 21:48:13 -72.87, 34.18 86.75 11/23/2023 21:47:08 -72.89, 34.14 86.74 2.69 65
11 11/23/2023 22:37:37 72.87,-158.17 93.26 11/23/2023 22:36:33 72.89,-158.21 93.28 3.08 64
12 11/23/2023 23:27:00 -72.87, 9.48 86.74 11/23/2023 23:26:01 -72.89, 9.41 86.73 2.99 59
13 11/24/2023 00:16:24 72.87, 177.14 93.27 11/24/2023 00:15:26 72.89, 177.06 93.29 3.33 58
14 11/24/2023 01:05:48 -72.92, -15.32 86.67 11/24/2023 01:04:53 -72.93, -15.22 86.67 3.30 55
15 11/24/2023 01:55:12 72.92, 152.34 93.34 11/24/2023 01:54:18 72.93, 152.43 93.35 3.25 54
16 11/24/2023 02:44:35 -72.92, -40.01 86.66 11/24/2023 02:43:46 -72.93, -39.95 86.66 1.92 49



Historial Predications of SNOs between AQUA and LANDSAT-8
